Wind_Speed
15 14 16 16 16 15 17 16 14 12 7 2 5 5 7 9 12 10 4 14 7 5 7 9 4 1 2 0 4 8 2 4 4 3 3 4 3 4 4 9 10 6 4 6 10 11 14 4 8 12 10 16 20 20
14 13 15 15 14 13 15 14 13 9 6 2 3 2 2 4 8 11 6 8 9 4 6 6 5 1 2 3 5 3 2 4 4 1 1 3 2 3 4 4 12 2 5 4 4 4 14 8 6 11 14 16 21 22
14 12 13 14 13 11 12 12 11 8 6 3 2 3 3 3 3 5 4 6 10 12 12 6 3 3 4 2 2 1 3 2 3 2 3 2 3 1 2 2 4 10 16 5 10 3 15 16 12 12 13 15 20 22
12 10 11 12 12 10 10 11 8 8 5 4 2 4 4 4 5 6 3 8 8 9 6 6 8 6 7 5 3 4 2 2 6 4 1 2 1 3 2 4 3 6 10 9 5 7 18 3 18 19 19 20 18 21
11 9 10 11 10 9 9 9 8 7 6 5 3 4 6 6 8 11 9 5 4 4 7 14 7 9 9 11 9 7 4 8 5 5 6 3 5 4 4 2 3 4 1 2 3 15 12 18 19 18 20 19 24 19
10 8 9 10 9 9 9 8 8 6 6 5 4 5 6 6 7 7 3 2 4 6 5 4 6 7 7 10 12 13 11 12 8 10 8 4 4 5 2 2 5 8 3 5 4 13 10 13 16 16 16 16 14 13
9 7 8 9 9 10 9 8 8 7 7 7 6 7 8 8 7 5 4 5 5 10 4 6 2 5 8 8 14 15 13 13 7 10 2 7 8 7 2 2 5 6 1 7 3 9 9 9 11 16 13 13 10 13
9 7 7 7 8 9 8 8 8 8 8 8 8 10 11 11 11 7 6 8 8 3 5 4 2 5 10 4 5 7 8 9 8 6 6 2 5 2 2 7 11 6 3 4 3 2 3 8 15 19 13 10 10 10
8 7 6 7 7 8 7 7 7 8 9 9 9 11 10 1 3 7 12 14 8 7 4 7 6 3 8 7 6 5 6 4 6 6 4 6 3 3 8 4 6 7 4 6 6 10 7 4 4 19 23 17 15 13
8 7 6 7 7 7 6 6 6 8 9 8 5 2 4 5 6 13 3 4 5 7 8 8 14 6 7 6 5 4 10 5 3 5 4 4 4 10 7 3 1 0 3 6 8 7 11 14 15 8 20 23 17 17
8 7 7 8 9 8 7 6 6 6 4 4 4 3 7 12 3 3 4 7 8 6 9 13 15 10 8 4 6 5 3 3 3 5 4 5 2 8 7 7 4 4 5 4 1 7 5 8 10 10 6 14 23 18
8 7 8 10 11 10 9 8 6 5 2 8 12 12 7 4 4 6 5 7 4 3 4 2 13 12 16 9 2 5 3 3 1 4 1 0 5 7 4 2 6 4 6 6 4 1 4 6 6 6 9 7 7 12
7 8 9 10 11 9 8 7 6 7 10 5 4 4 5 6 2 5 4 4 5 14 5 11 8 2 5 4 8 2 2 1 2 2 1 1 7 1 4 2 2 1 4 3 3 2 1 4 8 6 5 6 6 8
6 7 8 8 4 2 1 3 6 8 5 5 7 4 5 5 3 1 8 4 6 11 13 9 6 3 3 3 5 3 2 4 4 1 2 6 8 7 1 3 4 4 7 4 2 1 3 4 6 8 11 7 7 7
6 8 8 6 3 4 6 9 11 8 3 6 5 3 7 9 9 11 17 23 10 18 17 16 10 5 4 2 2 3 2 2 5 3 2 6 8 6 4 3 2 8 6 8 3 3 2 5 7 9 10 8 10 8
6 8 3 3 8 13 14 8 3 4 4 6 7 9 16 9 12 9 20 23 22 15 13 7 4 3 2 3 4 5 4 4 0 1 5 4 2 4 6 6 7 9 3 4 8 4 3 3 6 7 8 7 7 8
4 1 4 10 15 12 5 2 3 5 6 5 4 4 7 7 2 9 16 19 19 15 7 6 5 5 4 3 4 4 4 4 8 9 2 0 2 4 5 7 7 10 5 1 3 4 8 2 3 3 6 8 7 7
2 10 10 11 10 6 4 7 5 6 10 11 9 13 7 8 13 11 9 11 13 13 11 5 5 4 4 5 4 4 8 4 7 6 3 3 3 4 6 8 7 8 9 5 2 5 4 5 4 7 6 6 6 9
5 11 13 4 4 2 4 6 6 5 3 10 9 1 4 1 3 2 6 7 7 4 2 3 2 3 2 7 8 6 7 9 10 10 8 6 6 10 7 7 9 10 7 7 5 6 4 1 4 6 7 9 10 9
10 6 4 2 3 2 5 5 6 6 4 7 4 8 5 11 15 5 5 4 7 6 5 4 5 6 2 8 10 9 11 11 11 14 13 12 5 11 8 7 10 12 11 5 5 5 6 2 1 3 5 6 6 8
3 1 2 5 6 7 6 6 7 8 11 7 7 3 2 4 3 6 2 10 12 10 9 8 6 7 9 12 13 12 12 14 14 12 12 8 6 13 8 6 7 6 6 14 13 8 3 5 3 3 2 7 7 9
5 8 3 3 4 6 7 9 7 6 12 11 14 9 8 8 9 14 14 7 6 8 8 8 9 10 10 9 11 9 9 8 9 10 9 9 7 7 12 7 1 7 10 12 10 15 9 8 5 6 5 4 6 6
4 1 3 7 6 4 7 8 8 8 5 3 11 1 3 5 9 8 3 4 2 3 3 5 7 9 9 12 5 8 9 7 7 11 3 2 7 7 4 10 12 7 6 7 14 12 9 7 3 3 6 4 6 5
4 3 5 5 10 5 7 9 10 5 7 8 4 3 1 5 6 5 3 10 4 4 7 10 10 8 11 6 9 3 11 12 4 5 4 11 7 8 7 8 9 6 8 7 10 12 3 5 5 5 6 6 7 7
4 5 5 7 6 8 6 12 5 7 1 5 2 4 3 1 2 2 4 9 11 11 9 7 9 10 11 10 10 11 13 11 9 7 11 9 7 7 5 4 6 11 10 7 6 5 5 13 3 10 9 7 6 6
4 7 7 7 10 4 3 5 10 10 4 2 5 7 3 2 2 2 3 7 8 8 7 7 8 8 8 8 9 11 11 11 12 12 10 10 10 10 9 7 8 9 9 8 9 6 4 3 8 4 8 7 6 7
4 7 11 11 11 8 4 18 9 1 2 4 5 3 1 5 2 2 4 4 5 4 4 5 5 6 6 6 6 7 8 9 10 10 10 10 10 9 9 7 6 8 9 12 12 18 15 10 6 6 9 6 7 7
11 9 7 13 10 12 3 4 3 2 4 7 6 4 4 2 4 4 4 5 5 4 4 4 5 5 5 6 4 3 1 2 6 6 9 9 9 7 6 7 6 5 10 12 13 12 12 6 5 7 6 5 6 5
13 14 13 9 11 6 7 9 4 5 8 6 7 5 2 4 4 6 6 5 3 1 2 1 3 1 2 5 6 5 3 3 1 2 2 6 7 8 7 6 5 6 6 10 9 4 6 6 7 7 6 4 4 5
13 16 14 8 11 3 4 10 18 10 4 6 3 6 8 8 6 7 6 5 3 1 1 2 2 1 1 1 3 4 5 4 4 4 5 7 7 6 6 6 5 5 5 5 6 8 8 5 6 5 6 6 6 7
16 13 10 13 9 15 13 29 11 3 5 4 4 3 8 8 4 4 5 4 4 2 2 2 1 1 1 1 1 2 4 4 5 6 7 7 6 5 5 4 4 3 3 3 4 4 5 4 5 5 4 5 5 6
8 9 13 1 5 6 18 12 7 7 1 2 7 7 7 4 3 6 8 8 7 6 4 2 2 2 2 4 4 6 8 7 8 7 6 6 5 6 4 3 2 2 2 2 2 3 3 4 4 4 4 4 5 5
15 11 9 4 6 4 13 12 2 5 7 3 6 11 5 4 4 6 8 11 8 5 5 6 5 6 7 7 8 9 9 11 8 10 11 10 9 9 5 2 2 2 2 1 2 2 2 3 3 4 4 5 5 6
Wind_Direction
306 312 324 333 335 339 350 352 354 357 11 72 93 101 90 80 56 81 357 10 32 1 24 35 29 12 177 272 311 6 267 25 13 6 333 3 330 4 296 299 293 301 234 191 240 248 258 66 242 245 345 325 319 327
301 306 319 329 330 334 346 350 352 352 358 26 181 118 80 76 70 59 10 356 11 293 326 344 349 339 174 236 325 5 53 26 45 65 46 308 324 309 323 303 335 335 350 303 227 290 50 19 335 314 306 295 301 313
293 299 314 324 325 327 340 347 348 346 351 6 211 231 280 325 2 35 30 335 337 294 285 244 247 238 224 259 247 289 104 63 129 120 146 201 258 142 318 335 291 339 14 342 343 62 349 317 329 335 323 305 299 292
281 287 308 319 320 320 329 344 342 339 338 350 324 264 266 290 309 315 317 323 325 312 286 255 243 264 231 226 217 231 247 191 162 176 189 99 291 70 291 307 299 339 320 340 268 308 332 15 337 325 313 315 308 295
268 278 304 313 315 314 314 334 335 329 331 338 340 309 285 295 311 320 314 281 318 328 303 303 255 253 244 223 232 239 244 255 206 197 212 169 187 201 205 207 249 281 226 312 301 310 306 296 315 320 318 316 316 300
254 271 298 308 311 313 303 315 330 321 317 320 335 314 299 300 321 5 341 159 234 331 297 286 191 218 224 231 239 244 244 262 272 275 201 149 159 194 251 239 268 273 186 194 267 308 309 308 314 314 309 311 314 310
242 264 293 306 310 310 305 299 308 308 307 312 313 306 299 294 292 255 255 220 273 321 265 274 230 218 217 229 234 239 245 239 251 266 241 170 187 208 223 233 267 312 355 208 183 39 339 356 339 339 323 324 313 322
236 261 292 304 309 311 311 299 291 306 303 303 308 303 298 294 293 282 269 267 281 254 242 264 215 185 196 229 232 221 218 222 239 227 252 158 123 50 240 245 216 251 342 52 17 12 41 19 14 12 4 353 353 343
233 262 290 303 307 312 318 308 298 303 301 297 311 308 296 335 240 239 271 285 261 210 266 254 280 285 186 235 230 192 236 207 225 212 215 143 121 220 220 307 156 171 358 26 35 17 18 2 31 26 16 18 15 12
233 261 289 302 299 303 308 311 313 306 309 312 303 276 250 218 275 284 293 203 216 205 225 247 254 257 250 198 237 191 199 212 217 222 187 146 225 219 218 227 97 59 48 7 7 17 9 9 24 44 31 26 22 21
237 266 290 299 293 291 293 281 300 323 339 321 235 245 266 296 283 236 254 222 188 223 214 244 252 288 241 167 212 195 240 245 206 191 207 185 178 166 171 170 177 191 163 171 5 42 19 6 12 27 34 19 25 30
243 273 293 301 292 282 275 262 262 311 277 270 292 293 267 276 247 245 228 219 208 251 181 74 10 357 358 345 83 229 239 277 250 299 244 12 139 164 184 175 175 191 206 193 187 51 354 355 2 27 37 19 20 26
252 280 301 312 307 282 256 239 240 292 317 293 261 228 230 237 317 236 329 328 30 319 318 343 349 281 270 258 247 128 54 320 279 254 128 284 103 216 181 130 357 114 199 229 171 187 37 7 12 21 31 47 51 35
257 284 304 319 342 37 174 231 261 299 304 254 209 266 245 220 268 240 291 346 300 249 292 324 5 307 320 18 30 278 208 172 186 78 39 7 50 209 82 15 15 346 350 141 162 35 24 0 46 31 25 48 57 42
272 290 296 272 253 321 316 297 284 278 246 260 243 225 246 308 299 357 355 333 344 350 348 335 330 25 60 100 218 291 278 341 39 46 305 284 300 36 46 3 329 310 307 328 73 98 53 16 23 38 24 27 39 42
292 311 314 232 289 306 309 299 249 175 247 242 242 266 307 288 272 355 33 352 341 4 343 2 4 337 359 338 349 358 9 24 212 113 34 42 69 353 8 355 333 319 294 314 305 45 340 42 5 22 19 14 27 30
314 242 288 302 305 308 289 182 192 227 248 245 246 353 5 312 272 17 28 9 350 1 25 36 340 359 338 338 357 16 357 350 342 309 328 241 337 334 339 325 331 323 310 70 324 333 320 338 338 1 18 25 27 22
50 286 291 315 301 306 247 199 237 241 232 246 248 282 338 21 31 13 3 8 3 17 32 24 350 6 351 4 335 323 342 357 346 330 326 273 298 307 315 314 309 305 301 292 179 235 302 293 340 289 44 17 58 80
276 293 303 292 258 223 238 217 225 271 288 309 240 236 69 44 88 50 357 12 348 82 120 120 47 355 358 324 346 352 334 326 322 303 299 262 272 289 290 285 295 293 288 252 243 289 247 285 12 11 14 21 37 34
307 283 268 241 217 246 241 229 207 252 278 269 104 262 16 35 8 64 14 5 0 336 28 37 6 350 51 305 339 331 324 320 301 313 316 303 317 289 309 290 310 313 297 236 179 250 176 152 212 40 23 35 36 52
302 32 275 278 245 230 278 271 208 293 281 274 57 90 243 73 69 105 80 18 36 20 29 22 23 334 320 318 319 321 322 321 310 301 290 308 318 318 305 310 358 10 41 9 44 19 105 4 109 74 63 329 43 55
271 292 288 288 234 226 249 244 252 217 255 32 318 92 254 45 17 41 40 9 18 9 6 347 349 326 329 329 315 302 346 326 339 324 316 303 281 301 321 281 319 31 46 30 12 291 238 147 110 81 87 58 58 49
339 316 241 223 243 263 261 256 256 255 247 169 29 324 359 56 80 46 277 40 338 6 57 14 338 310 301 310 311 324 329 327 0 357 337 326 327 0 38 6 10 31 33 16 7 40 73 117 8 82 73 70 53 29
316 249 249 221 205 242 242 215 236 266 64 326 178 144 41 49 79 252 49 64 72 45 23 358 323 330 332 356 28 18 3 355 357 54 355 11 1 45 63 59 345 30 22 24 14 350 39 108 73 89 76 56 56 56
242 239 231 245 253 233 222 229 127 259 284 316 229 149 91 51 210 356 47 25 1 9 355 341 333 3 9 3 359 360 6 359 3 43 40 38 43 56 51 10 24 37 39 18 21 37 73 216 90 91 83 55 48 51
221 219 207 224 216 180 252 191 171 235 222 212 63 352 172 225 85 284 60 31 16 358 355 0 1 4 23 19 17 20 19 25 73 63 39 30 23 30 32 41 51 41 21 17 35 7 323 66 85 74 80 67 56 61
242 238 211 247 274 253 25 350 311 280 137 291 147 302 282 164 138 126 110 57 45 38 38 25 29 34 34 32 37 45 48 56 60 55 54 46 48 50 65 81 51 34 35 41 54 75 80 76 80 71 75 75 69 61
235 270 238 201 224 265 268 238 264 35 111 234 99 121 252 39 47 68 109 125 114 96 79 63 61 68 52 43 33 21 19 96 98 50 52 65 52 50 52 45 78 79 57 67 52 53 85 55 51 65 63 53 54 49
242 237 247 255 240 223 227 253 32 354 274 324 129 217 141 80 110 142 145 147 133 105 58 55 32 121 71 42 39 39 36 23 148 72 136 87 73 63 74 87 63 83 65 54 42 87 73 67 57 51 54 50 41 28
232 230 208 238 252 96 241 282 273 234 34 1 49 121 101 113 127 150 160 161 184 159 38 85 67 78 51 76 54 53 52 52 43 56 84 95 106 106 101 88 82 73 68 62 63 67 54 58 52 49 47 39 36 34
220 220 234 239 263 129 184 231 230 217 221 215 101 19 105 127 140 177 195 214 205 190 173 176 101 41 86 102 122 123 85 77 86 99 102 106 116 108 121 112 102 83 76 65 48 47 44 43 33 35 31 29 16 9
228 238 235 171 72 348 286 259 211 243 250 186 165 148 129 126 163 185 196 201 204 205 208 212 199 187 142 148 148 133 127 121 125 139 115 122 124 116 109 109 99 103 87 56 48 33 38 25 35 19 21 19 359 355
222 223 267 137 138 220 263 264 203 249 241 181 156 166 162 175 122 182 198 189 191 213 193 177 168 160 144 142 150 146 166 196 200 186 177 169 158 147 114 126 133 119 112 60 42 41 49 41 27 17 9 2 356 356
Height
1565 1563 1560 1556 1554 1551 1548 1545 1541 1539 1535 1533 1533 1532 1532 1531 1531 1531 1532 1529 1529 1528 1526 1524 1524 1523 1524 1524 1521 1519 1518 1519 1520 1521 1520 1517 1516 1517 1516 1501 1494 1492 1492 1491 1491 1492 1494 1481 1481 1484 1485 1483 1481 1478
1562 1561 1559 1555 1552 1549 1547 1544 1542 1540 1537 1534 1534 1534 1534 1533 1532 1532 1533 1532 1529 1531 1527 1526 1524 1523 1523 1523 1521 1520 1523 1522 1524 1527 1529 1528 1524 1522 1520 1509 1501 1499 1504 1496 1493 1482 1484 1489 1491 1490 1488 1487 1484 1480
1559 1558 1556 1554 1552 1549 1547 1544 1542 1540 1537 1535 1534 1534 1534 1534 1533 1533 1533 1533 1532 1529 1525 1524 1522 1522 1521 1521 1521 1521 1522 1523 1525 1525 1526 1529 1527 1527 1520 1517 1515 1505 1504 1499 1499 1485 1493 1490 1488 1488 1487 1485 1482 1478
1554 1553 1552 1551 1549 1547 1546 1543 1541 1540 1538 1536 1535 1535 1534 1534 1533 1533 1532 1534 1533 1531 1524 1519 1520 1520 1520 1519 1520 1520 1520 1520 1522 1523 1522 1524 1527 1527 1523 1522 1518 1513 1509 1508 1502 1497 1492 1487 1489 1487 1483 1480 1476 1472
1550 1550 1549 1548 1547 1546 1544 1542 1540 1539 1538 1536 1534 1534 1534 1533 1532 1531 1531 1532 1532 1534 1526 1517 1514 1515 1515 1516 1517 1518 1518 1517 1517 1519 1518 1519 1522 1522 1520 1522 1517 1512 1512 1511 1505 1502 1500 1493 1488 1483 1478 1474 1472 1470
1547 1546 1547 1546 1544 1544 1543 1541 1539 1538 1537 1536 1534 1534 1533 1532 1531 1531 1533 1532 1530 1530 1528 1515 1510 1511 1512 1513 1514 1513 1513 1513 1512 1509 1507 1509 1514 1517 1515 1515 1511 1509 1507 1507 1507 1501 1497 1493 1488 1484 1480 1476 1472 1468
1544 1543 1544 1544 1542 1542 1540 1539 1538 1537 1536 1535 1534 1532 1531 1530 1530 1533 1532 1530 1528 1528 1528 1516 1506 1506 1508 1509 1509 1510 1509 1509 1509 1509 1504 1504 1509 1512 1510 1513 1508 1506 1503 1503 1502 1498 1496 1492 1488 1483 1477 1473 1469 1466
1541 1541 1541 1541 1540 1540 1538 1537 1536 1535 1535 1533 1532 1531 1529 1528 1526 1526 1526 1525 1526 1526 1525 1513 1502 1504 1504 1504 1504 1503 1504 1505 1503 1502 1499 1498 1501 1506 1510 1504 1504 1503 1500 1501 1500 1496 1494 1492 1488 1482 1477 1473 1468 1464
1539 1540 1540 1539 1538 1538 1536 1535 1534 1533 1532 1531 1530 1528 1527 1525 1525 1524 1522 1521 1520 1525 1518 1504 1497 1499 1498 1498 1497 1500 1499 1500 1497 1496 1494 1498 1503 1507 1499 1496 1499 1500 1500 1498 1498 1496 1492 1490 1486 1482 1478 1472 1469 1465
1537 1538 1537 1537 1536 1536 1534 1534 1532 1531 1531 1530 1528 1528 1526 1524 1521 1521 1518 1519 1517 1515 1513 1502 1492 1489 1493 1493 1491 1493 1493 1491 1490 1489 1488 1494 1497 1493 1494 1494 1494 1496 1497 1497 1495 1495 1492 1489 1487 1484 1479 1476 1472 1468
1535 1535 1535 1534 1534 1533 1532 1532 1531 1531 1530 1528 1529 1526 1523 1521 1520 1519 1516 1512 1505 1502 1497 1489 1483 1481 1478 1483 1484 1484 1486 1482 1485 1479 1480 1481 1485 1487 1488 1490 1492 1493 1492 1493 1494 1494 1492 1490 1488 1486 1482 1478 1477 1473
1533 1533 1532 1532 1531 1530 1530 1529 1530 1530 1531 1529 1526 1524 1524 1521 1517 1513 1502 1491 1488 1489 1481 1485 1489 1487 1482 1473 1479 1480 1479 1479 1477 1475 1474 1482 1479 1484 1487 1486 1487 1489 1489 1490 1491 1492 1492 1490 1487 1486 1485 1482 1480 1478
1530 1530 1530 1529 1527 1526 1526 1526 1528 1528 1527 1526 1525 1523 1519 1514 1514 1500 1500 1498 1496 1496 1480 1482 1483 1482 1483 1481 1477 1472 1482 1485 1484 1474 1483 1480 1482 1485 1485 1486 1486 1486 1487 1488 1488 1489 1490 1490 1488 1485 1483 1483 1482 1481
1528 1528 1527 1527 1526 1525 1525 1526 1526 1526 1526 1524 1519 1519 1507 1500 1496 1499 1493 1488 1493 1485 1480 1479 1481 1482 1481 1484 1491 1488 1483 1485 1481 1485 1489 1488 1488 1487 1486 1486 1485 1485 1486 1486 1486 1486 1487 1487 1487 1485 1483 1481 1480 1479
1526 1526 1525 1525 1525 1525 1525 1524 1524 1524 1525 1518 1510 1512 1497 1492 1491 1490 1490 1483 1477 1480 1478 1476 1474 1479 1487 1490 1490 1486 1480 1476 1485 1495 1495 1493 1489 1487 1487 1487 1486 1486 1485 1484 1482 1483 1485 1485 1484 1484 1483 1480 1479 1477
1524 1524 1523 1523 1524 1522 1521 1520 1520 1522 1522 1515 1507 1499 1493 1488 1485 1483 1487 1491 1483 1479 1479 1477 1480 1482 1484 1485 1486 1483 1484 1490 1494 1491 1490 1491 1491 1490 1488 1487 1486 1484 1483 1483 1482 1482 1483 1482 1483 1482 1481 1479 1478 1477
1523 1523 1522 1522 1520 1519 1518 1519 1520 1519 1513 1505 1499 1498 1498 1495 1496 1490 1488 1489 1486 1481 1480 1486 1489 1489 1488 1487 1487 1489 1490 1491 1490 1490 1489 1490 1490 1489 1488 1486 1485 1484 1482 1481 1483 1483 1481 1481 1480 1481 1480 1479 1478 1477
1522 1520 1520 1519 1517 1516 1516 1516 1516 1510 1504 1499 1497 1495 1490 1490 1490 1490 1491 1492 1490 1489 1490 1493 1495 1492 1493 1494 1494 1494 1491 1490 1489 1488 1488 1488 1488 1487 1486 1485 1484 1483 1481 1480 1478 1482 1481 1481 1480 1478 1478 1478 1477 1477
1519 1518 1516 1515 1515 1516 1516 1514 1512 1504 1499 1498 1492 1490 1490 1489 1490 1491 1493 1494 1493 1492 1492 1492 1494 1495 1496 1495 1493 1492 1491 1490 1489 1488 1486 1485 1485 1485 1484 1483 1481 1480 1479 1479 1478 1478 1480 1480 1479 1478 1478 1478 1478 1479
1514 1514 1514 1514 1515 1515 1511 1506 1505 1500 1492 1489 1488 1486 1487 1488 1490 1491 1494 1492 1492 1491 1490 1493 1495 1495 1496 1495 1492 1491 1490 1488 1487 1486 1483 1481 1482 1482 1481 1481 1479 1477 1476 1475 1475 1478 1479 1478 1479 1480 1480 1481 1480 1480
1513 1513 1513 1513 1512 1513 1510 1500 1498 1497 1490 1484 1486 1492 1484 1487 1490 1491 1491 1491 1491 1492 1494 1494 1495 1496 1495 1493 1493 1492 1489 1488 1486 1485 1482 1480 1480 1482 1480 1479 1478 1480 1474 1476 1475 1478 1474 1478 1479 1480 1481 1482 1480 1481
1513 1513 1513 1511 1511 1508 1504 1498 1495 1493 1492 1490 1484 1486 1485 1485 1488 1491 1498 1496 1494 1495 1496 1496 1495 1495 1493 1491 1489 1490 1486 1485 1484 1481 1481 1480 1480 1479 1477 1474 1474 1475 1477 1479 1478 1478 1477 1478 1480 1480 1483 1483 1483 1483
1512 1511 1511 1509 1507 1503 1499 1494 1490 1487 1482 1481 1486 1482 1485 1484 1491 1496 1493 1492 1494 1493 1494 1495 1494 1492 1492 1489 1488 1488 1485 1483 1482 1480 1480 1480 1482 1479 1477 1482 1480 1479 1478 1480 1482 1476 1477 1478 1483 1483 1483 1484 1483 1485
1512 1511 1506 1502 1501 1498 1492 1487 1485 1482 1483 1484 1476 1480 1482 1487 1494 1491 1488 1490 1492 1492 1493 1493 1492 1490 1488 1486 1486 1486 1485 1483 1481 1480 1483 1482 1481 1481 1482 1482 1484 1481 1481 1481 1479 1479 1479 1482 1484 1485 1485 1486 1486 1486
1512 1507 1505 1498 1494 1489 1484 1484 1488 1487 1481 1481 1475 1477 1480 1484 1485 1485 1487 1490 1491 1491 1492 1492 1490 1488 1488 1488 1488 1488 1487 1485 1483 1482 1484 1483 1484 1484 1485 1485 1486 1483 1482 1483 1483 1481 1482 1481 1485 1486 1487 1487 1488 1488
1506 1498 1496 1486 1481 1481 1488 1484 1489 1486 1472 1471 1474 1481 1479 1480 1482 1485 1486 1490 1492 1493 1492 1492 1491 1490 1489 1490 1490 1490 1489 1487 1484 1486 1487 1486 1486 1485 1486 1486 1487 1487 1486 1485 1484 1482 1482 1484 1485 1487 1488 1489 1489 1490
1499 1487 1484 1481 1478 1474 1477 1482 1473 1468 1469 1471 1472 1478 1474 1480 1481 1487 1487 1490 1491 1492 1493 1492 1492 1491 1491 1491 1491 1491 1491 1490 1490 1490 1490 1489 1489 1489 1489 1490 1490 1491 1490 1489 1487 1486 1486 1488 1490 1491 1491 1491 1491 1491
1487 1479 1476 1478 1479 1476 1474 1473 1470 1470 1474 1480 1479 1487 1490 1476 1480 1485 1487 1489 1491 1492 1493 1493 1492 1492 1492 1492 1491 1491 1490 1490 1491 1491 1491 1492 1492 1492 1492 1492 1492 1493 1492 1492 1491 1490 1491 1492 1493 1492 1493 1493 1493 1493
1481 1479 1479 1478 1476 1474 1473 1471 1469 1469 1471 1468 1476 1480 1475 1480 1483 1485 1488 1489 1490 1491 1491 1491 1492 1492 1492 1492 1492 1492 1491 1490 1490 1490 1491 1491 1492 1494 1494 1494 1494 1494 1495 1494 1494 1494 1494 1495 1495 1495 1495 1495 1495 1495
1476 1473 1473 1473 1471 1479 1480 1475 1474 1472 1470 1473 1474 1476 1478 1480 1483 1485 1487 1488 1489 1489 1490 1491 1491 1491 1491 1491 1492 1493 1492 1492 1491 1490 1490 1491 1493 1495 1496 1496 1496 1496 1497 1497 1496 1496 1496 1496 1497 1497 1496 1496 1496 1496
1468 1467 1467 1466 1465 1471 1473 1472 1470 1471 1471 1470 1472 1474 1475 1479 1484 1486 1487 1488 1488 1489 1489 1490 1490 1491 1491 1491 1491 1492 1493 1493 1493 1493 1494 1494 1495 1496 1497 1497 1498 1498 1498 1498 1498 1498 1498 1498 1497 1497 1497 1498 1497 1497
1464 1463 1463 1464 1472 1473 1470 1466 1464 1463 1464 1461 1466 1470 1475 1479 1481 1483 1484 1486 1487 1487 1488 1489 1489 1490 1491 1490 1491 1491 1492 1493 1494 1494 1495 1496 1496 1497 1498 1498 1498 1499 1499 1499 1499 1499 1499 1499 1499 1499 1498 1498 1498 1497
1460 1459 1459 1461 1468 1473 1472 1464 1460 1460 1458 1460 1464 1465 1466 1471 1475 1479 1481 1482 1484 1485 1486 1488 1488 1489 1489 1491 1491 1491 1491 1490 1491 1493 1494 1495 1496 1497 1498 1499 1499 1500 1500 1500 1500 1499 1499 1500 1499 1499 1499 1499 1498 1497